Monarch Pass, CO

8:51 PM MDT on July 27, 2017 (GMT -0600)
Monarch Pass

Weather History for KMYP - March, 2014

Change the Weather History Date:

Wednesday, March 26, 2014

  Actual Average (KALS) Record (KALS)
Temperature  
Mean Temperature 26 °F -  
Max Temperature 30 °F 54 °F 73 °F (1971)
Min Temperature 21 °F 20 °F -2 °F (2016)
Degree Days  
Heating Degree Days 40    
Moisture  
Dew Point 18 °F    
Average Humidity 74    
Maximum Humidity 93    
Minimum Humidity 37    
Precipitation  
Precipitation 0.00 in - - ()
Sea Level Pressure  
Sea Level Pressure 29.88 in    
Wind  
Wind Speed 26 mph (WSW)    
Max Wind Speed 40 mph    
Max Gust Speed 53 mph    
Visibility 6 miles    
Events Fog , Snow    
Averages and records for this station are not official NWS values.
T = Trace of Precipitation, MM = Missing Value Source: NWS Daily Summary

Daily Weather History Graph

Daily Weather History Graph

Search for Another Location

Airport or City:

Trip Planner

Search our weather history database for the weather conditions in past years. The results will help you decide how hot, cold, wet, or windy it might be!

Date:

Astronomy

Mar. 26, 2014 Rise Set
Actual Time 6:58 AM MDT 7:22 PM MDT
Civil Twilight 6:32 AM MDT 7:48 PM MDT
Nautical Twilight 6:01 AM MDT 8:20 PM MDT
Astronomical Twilight 5:29 AM MDT 8:51 PM MDT
Moon 4:06 AM MDT (3/26) 3:07 PM MDT (3/26)
Length of Visible Light 13h 16m
Length of Day
12h 23m
Waning Crescent, 21% of the Moon is Illuminated
Mar 26
Waning Crescent
Mar 30
New
Apr 7
First Quarter
Apr 15
Full
Apr 22
Last Quarter

Hourly Weather History & Observations

Time (MDT) Temp. Windchill Dew Point Humidity Pressure Visibility Wind Dir Wind Speed Gust Speed Precip Events Conditions
12:05 AM 28.4 °F 13.5 °F 5.0 °F 37% 30.12 in 10.0 mi WSW 26.5 mph - N/A   Clear
12:27 AM 28.4 °F 14.1 °F 5.0 °F 37% 30.12 in 10.0 mi WSW 24.2 mph - N/A   Clear
12:52 AM 28.4 °F 13.3 °F 5.0 °F 37% 30.10 in 10.0 mi WSW 27.6 mph - N/A   Clear
1:15 AM 26.6 °F 10.0 °F 6.8 °F 43% 30.09 in 10.0 mi WSW 31.1 mph - N/A   Clear
1:26 AM 26.6 °F 10.6 °F 8.6 °F 47% 30.09 in 10.0 mi SW 28.8 mph 36.8 mph N/A   Clear
1:55 AM 26.6 °F 11.1 °F 8.6 °F 47% 30.08 in 10.0 mi WSW 26.5 mph 33.4 mph N/A   Clear
2:15 AM 26.6 °F 11.4 °F 10.4 °F 51% 30.07 in 10.0 mi WSW 25.3 mph 32.2 mph N/A   Clear
2:35 AM 26.6 °F 10.3 °F 12.2 °F 55% 30.06 in 10.0 mi WSW 29.9 mph 35.7 mph N/A   Clear
2:55 AM 26.6 °F 11.1 °F 12.2 °F 55% 30.05 in 10.0 mi WSW 26.5 mph - N/A   Mostly Cloudy
3:15 AM 26.6 °F 11.1 °F 12.2 °F 55% 30.04 in 10.0 mi WSW 26.5 mph - N/A   Overcast
3:35 AM 26.6 °F 11.4 °F 14.0 °F 59% 30.03 in 10.0 mi WSW 25.3 mph - N/A   Overcast
3:55 AM 26.6 °F 11.7 °F 14.0 °F 59% 30.02 in 10.0 mi WSW 24.2 mph - N/A   Overcast
4:12 AM 26.6 °F 11.7 °F 14.0 °F 59% 30.02 in 10.0 mi WSW 24.2 mph - N/A   Overcast
4:27 AM 26.6 °F 12.7 °F 14.0 °F 59% 30.02 in 10.0 mi WSW 20.7 mph - N/A   Overcast
4:54 AM 24.8 °F 11.1 °F 14.0 °F 64% 30.01 in 10.0 mi WSW 18.4 mph 25.3 mph N/A   Overcast
5:14 AM 24.8 °F 10.7 °F 14.0 °F 64% 30.01 in 10.0 mi WSW 19.6 mph 28.8 mph N/A   Overcast
5:35 AM 24.8 °F 9.0 °F 15.8 °F 69% 29.99 in 10.0 mi WSW 25.3 mph - N/A   Mostly Cloudy
5:54 AM 23.0 °F 6.6 °F 15.8 °F 74% 29.99 in 10.0 mi WSW 25.3 mph - N/A   Mostly Cloudy
6:13 AM 23.0 °F 6.3 °F 15.8 °F 74% 29.99 in 10.0 mi West 26.5 mph - N/A   Mostly Cloudy
6:35 AM 23.0 °F 6.3 °F 15.8 °F 74% 29.99 in 10.0 mi WSW 26.5 mph - N/A   Scattered Clouds
6:53 AM 23.0 °F 6.9 °F 15.8 °F 74% 29.99 in 10.0 mi WSW 24.2 mph - N/A   Clear
7:09 AM 23.0 °F 6.3 °F 15.8 °F 74% 29.99 in 10.0 mi WSW 26.5 mph - N/A   Clear
7:35 AM 23.0 °F 7.2 °F 17.6 °F 80% 29.99 in 10.0 mi WSW 23.0 mph - N/A   Mostly Cloudy
7:49 AM 23.0 °F 8.3 °F 17.6 °F 80% 29.98 in 10.0 mi WSW 19.6 mph 23.0 mph N/A   Overcast
8:11 AM 23.0 °F 9.2 °F 17.6 °F 80% 29.98 in 10.0 mi WSW 17.3 mph 23.0 mph N/A   Mostly Cloudy
8:54 AM 24.8 °F 11.1 °F 17.6 °F 74% 29.97 in 10.0 mi WSW 18.4 mph 25.3 mph N/A   Overcast
9:13 AM 26.6 °F 13.1 °F 17.6 °F 69% 29.97 in 10.0 mi WSW 19.6 mph 26.5 mph N/A   Overcast
9:35 AM 26.6 °F 11.1 °F 17.6 °F 69% 29.96 in 10.0 mi West 26.5 mph 33.4 mph N/A   Overcast
9:54 AM 26.6 °F 12.4 °F 17.6 °F 69% 29.96 in 10.0 mi WSW 21.9 mph 25.3 mph N/A   Overcast
10:11 AM 28.4 °F 14.7 °F 19.4 °F 69% 29.96 in 10.0 mi WSW 21.9 mph 34.5 mph N/A   Overcast
10:30 AM 28.4 °F 14.1 °F 17.6 °F 64% 29.96 in 10.0 mi WSW 24.2 mph 32.2 mph N/A   Overcast
10:55 AM 28.4 °F 14.7 °F 17.6 °F 64% 29.95 in 10.0 mi WSW 21.9 mph 42.6 mph N/A   Overcast
11:13 AM 28.4 °F 12.3 °F 17.6 °F 64% 29.95 in 10.0 mi West 32.2 mph 39.1 mph N/A   Overcast
11:32 AM 28.4 °F 12.7 °F 17.6 °F 64% 29.93 in 10.0 mi West 29.9 mph 34.5 mph N/A   Overcast
11:49 AM 26.6 °F 9.6 °F 19.4 °F 74% 29.92 in 1.8 mi West 33.4 mph 40.3 mph N/A Snow Light Snow
12:00 PM 26.6 °F 10.3 °F 21.2 °F 80% 29.92 in 1.5 mi West 29.9 mph 38.0 mph N/A Snow Light Snow
12:34 PM 28.4 °F 14.4 °F 19.4 °F 69% 29.91 in 10.0 mi West 23.0 mph 29.9 mph N/A Snow Light Snow
12:55 PM 28.4 °F 14.4 °F 19.4 °F 69% 29.90 in 10.0 mi West 23.0 mph 31.1 mph N/A   Overcast
1:05 PM 28.4 °F 14.4 °F 19.4 °F 69% 29.89 in 10.0 mi West 23.0 mph - N/A   Overcast
1:28 PM 30.2 °F 16.2 °F 19.4 °F 64% 29.86 in 10.0 mi West 25.3 mph 31.1 mph N/A   Overcast
1:51 PM 28.4 °F 14.7 °F 19.4 °F 69% 29.86 in 7.0 mi WSW 21.9 mph 27.6 mph N/A Snow Light Snow
2:13 PM 26.6 °F 11.7 °F 21.2 °F 80% 29.84 in 10.0 mi West 24.2 mph 27.6 mph N/A   Overcast
2:25 PM 24.8 °F 8.7 °F 23.0 °F 93% 29.83 in 0.5 mi West 26.5 mph - N/A Snow Light Snow
2:53 PM 26.6 °F 12.0 °F 23.0 °F 86% 29.82 in 0.2 mi WSW 23.0 mph 31.1 mph N/A Snow Light Snow
3:15 PM 28.4 °F 12.3 °F 23.0 °F 80% 29.80 in 10.0 mi WSW 32.2 mph 38.0 mph N/A   Overcast
3:28 PM 28.4 °F 12.7 °F 23.0 °F 80% 29.79 in 3.0 mi SW 29.9 mph 38.0 mph N/A Snow Light Snow
3:50 PM 28.4 °F 14.7 °F 23.0 °F 80% 29.78 in 10.0 mi WSW 21.9 mph 32.2 mph N/A   Mostly Cloudy
4:12 PM 26.6 °F 9.3 °F 21.2 °F 80% 29.76 in 7.0 mi WSW 34.5 mph 40.3 mph N/A Snow Light Snow
4:34 PM 26.6 °F 10.3 °F 21.2 °F 80% 29.76 in 7.0 mi WSW 29.9 mph 36.8 mph N/A Snow Light Snow
4:44 PM 26.6 °F 10.8 °F 21.2 °F 80% 29.76 in 10.0 mi SW 27.6 mph 35.7 mph N/A   Overcast
5:15 PM 26.6 °F 11.7 °F 21.2 °F 80% 29.74 in 1.2 mi WSW 24.2 mph 28.8 mph N/A Snow Light Snow
5:35 PM 24.8 °F 8.1 °F 21.2 °F 86% 29.72 in 1.8 mi WSW 28.8 mph 38.0 mph N/A Snow Light Snow
5:52 PM 24.8 °F 6.2 °F 21.2 °F 86% 29.71 in 0.8 mi SW 38.0 mph 49.5 mph N/A Snow Light Snow
6:15 PM 23.0 °F 4.6 °F 21.2 °F 93% 29.70 in 0.2 mi SW 33.4 mph 51.8 mph N/A Snow Light Snow
6:35 PM 23.0 °F 3.2 °F 21.2 °F 93% 29.70 in 0.2 mi WSW 40.3 mph 48.3 mph N/A Snow Heavy Snow
6:55 PM 23.0 °F 3.2 °F 21.2 °F 93% 29.70 in 0.2 mi West 40.3 mph 49.5 mph N/A Snow Heavy Snow
7:13 PM 23.0 °F - 21.2 °F 93% 29.67 in 0.2 mi North - - N/A Snow Heavy Snow
7:27 PM 23.0 °F 6.0 °F 21.2 °F 93% 29.68 in 0.2 mi SW 27.6 mph 52.9 mph N/A Snow Heavy Snow
7:53 PM 23.0 °F - 21.2 °F 93% 29.69 in 0.2 mi North - - N/A Snow Heavy Snow
8:15 PM 23.0 °F - 21.2 °F 93% 29.69 in 0.2 mi North - - N/A   Overcast
8:35 PM 23.0 °F - 21.2 °F 93% 29.69 in 0.2 mi North - - N/A Fog Light Freezing Fog
8:55 PM 21.2 °F - 19.4 °F 93% 29.70 in 0.2 mi North - - N/A Fog Light Freezing Fog
9:04 PM 23.0 °F 4.1 °F 21.2 °F 93% 29.71 in 0.2 mi WSW 35.7 mph - N/A Fog Light Freezing Fog
9:31 PM 21.2 °F - 19.4 °F 93% 29.69 in 0.2 mi North - - N/A Snow Heavy Snow
9:50 PM 21.2 °F - 19.4 °F 93% 29.69 in 0.2 mi North - - N/A Snow Heavy Snow
10:15 PM 21.2 °F - 19.4 °F 93% 29.71 in 0.2 mi North - - N/A   Overcast
10:27 PM 21.2 °F - 19.4 °F 93% 29.69 in 0.2 mi North - - N/A Snow Heavy Snow
10:54 PM 21.2 °F - 19.4 °F 93% 29.70 in 0.2 mi North - - N/A Snow Heavy Snow
11:09 PM 21.2 °F - 19.4 °F 93% 29.69 in 0.2 mi North - - N/A Snow Heavy Snow
11:35 PM 21.2 °F - 19.4 °F 93% 29.69 in 0.2 mi North - - N/A Snow Heavy Snow
11:53 PM 21.2 °F - 19.4 °F 93% 29.67 in 0.2 mi North - - N/A Snow Heavy Snow